owner,sensor,date,latitude,longitude,vertical_datum,wind_speed,wind_to_direction,wind_speed_of_gust,qcFlag 
TCOON,ioos:station:TCOON:524:1,2017-03-01T00:00:00Z,29.8672,-93.9310,0.0,5.0,178.0,6.4,'11111222,11111222,11111222' 
TCOON,ioos:station:TCOON:524:1,2017-03-01T00:06:00Z,29.8672,-93.9310,0.0,3.9,172.0,7.3,'11111222,11111222,11111222' 
TCOON,ioos:station:TCOON:524:1,2017-03-01T00:12:00Z,29.8672,-93.9310,0.0,4.1,177.0,7.4,'11111222,11111222,11111222' 
TCOON,ioos:station:TCOON:524:1,2017-03-01T00:18:00Z,29.8672,-93.9310,0.0,4.1,177.0,7.4,'1111122,1111122,1111122' 
TCOON,ioos:station:TCOON:524:1,2017-03-01T00:24:00Z,29.8672,-93.9310,0.0,4.0,173.0,6.2,'11111222,11111222,11111222' 
TCOON,ioos:station:TCOON:524:1,2017-03-01T00:30:00Z,29.8672,-93.9310,0.0,4.1,173.0,6.0,'11111222,11111222,11111222' 
TCOON,ioos:station:TCOON:524:1,2017-03-01T00:36:00Z,29.8672,-93.9310,0.0,4.2,173.0,7.3,'11111222,11111222,11111222' 
TCOON,ioos:station:TCOON:524:1,2017-03-01T00:42:00Z,29.8672,-93.9310,0.0,4.3,175.0,5.8,'11111222,11111222,11111222' 
TCOON,ioos:station:TCOON:524:1,2017-03-01T00:48:00Z,29.8672,-93.9310,0.0,3.2,178.0,7.7,'11111222,11111222,11111222' 
TCOON,ioos:station:TCOON:524:1,2017-03-01T00:54:00Z,29.8672,-93.9310,0.0,3.6,176.0,6.1,'11111222,11111222,11111222' 
TCOON,ioos:station:TCOON:524:1,2017-03-01T01:00:00Z,29.8672,-93.9310,0.0,3.7,175.0,5.7,'11111222,11111222,11111222' 
TCOON,ioos:station:TCOON:524:1,2017-03-01T01:06:00Z,29.8672,-93.9310,0.0,4.9,174.0,7.4,'11111222,11111222,11111222' 
TCOON,ioos:station:TCOON:524:1,2017-03-01T01:12:00Z,29.8672,-93.9310,0.0,3.9,172.0,7.8,'11111222,11111222,11111222' 
TCOON,ioos:station:TCOON:524:1,2017-03-01T01:18:00Z,29.8672,-93.9310,0.0,3.9,172.0,7.8,'1111122,1111122,1111122' 
TCOON,ioos:station:TCOON:524:1,2017-03-01T01:24:00Z,29.8672,-93.9310,0.0,5.0,172.0,7.4,'11111222,11111222,11111222' 
TCOON,ioos:station:TCOON:524:1,2017-03-01T01:30:00Z,29.8672,-93.9310,0.0,5.0,169.0,8.4,'11111222,11111222,11111222' 
TCOON,ioos:station:TCOON:524:1,2017-03-01T01:36:00Z,29.8672,-93.9310,0.0,4.2,177.0,7.2,'11111222,11111222,11111222' 
TCOON,ioos:station:TCOON:524:1,2017-03-01T01:42:00Z,29.8672,-93.9310,0.0,4.0,178.0,6.1,'11111222,11111222,11111222' 
TCOON,ioos:station:TCOON:524:1,2017-03-01T01:48:00Z,29.8672,-93.9310,0.0,4.3,177.0,7.0,'11111222,11111222,11111222' 
TCOON,ioos:station:TCOON:524:1,2017-03-01T01:54:00Z,29.8672,-93.9310,0.0,4.2,170.0,5.8,'11111222,11111222,11111222' 
TCOON,ioos:station:TCOON:524:1,2017-03-01T02:00:00Z,29.8672,-93.9310,0.0,4.6,178.0,7.3,'11111222,11111222,11111222' 
TCOON,ioos:station:TCOON:524:1,2017-03-01T02:06:00Z,29.8672,-93.9310,0.0,4.3,183.0,6.2,'11111222,11111222,11111222' 
TCOON,ioos:station:TCOON:524:1,2017-03-01T02:12:00Z,29.8672,-93.9310,0.0,4.5,183.0,7.9,'11111222,11111222,11111222' 
TCOON,ioos:station:TCOON:524:1,2017-03-01T02:18:00Z,29.8672,-93.9310,0.0,4.5,183.0,7.9,'1111122,1111122,1111122' 
TCOON,ioos:station:TCOON:524:1,2017-03-01T02:24:00Z,29.8672,-93.9310,0.0,4.4,180.0,7.3,'11111222,11111222,11111222' 
TCOON,ioos:station:TCOON:524:1,2017-03-01T02:30:00Z,29.8672,-93.9310,0.0,3.7,177.0,7.3,'11111222,11111222,11111222' 
TCOON,ioos:station:TCOON:524:1,2017-03-01T02:36:00Z,29.8672,-93.9310,0.0,4.6,169.0,6.4,'11111222,11111222,11111222' 
TCOON,ioos:station:TCOON:524:1,2017-03-01T02:42:00Z,29.8672,-93.9310,0.0,4.5,174.0,7.3,'11111222,11111222,11111222' 
TCOON,ioos:station:TCOON:524:1,2017-03-01T02:48:00Z,29.8672,-93.9310,0.0,5.3,174.0,7.9,'11111222,11111222,11111222' 
TCOON,ioos:station:TCOON:524:1,2017-03-01T02:54:00Z,29.8672,-93.9310,0.0,5.1,174.0,7.7,'11111222,11111222,11111222' 
TCOON,ioos:station:TCOON:524:1,2017-03-01T03:00:00Z,29.8672,-93.9310,0.0,5.2,178.0,8.5,'11111222,11111222,11111222' 
TCOON,ioos:station:TCOON:524:1,2017-03-01T03:06:00Z,29.8672,-93.9310,0.0,4.7,170.0,8.6,'11111222,11111222,11111222' 
TCOON,ioos:station:TCOON:524:1,2017-03-01T03:12:00Z,29.8672,-93.9310,0.0,6.3,176.0,8.6,'11111222,11111222,11111222' 
TCOON,ioos:station:TCOON:524:1,2017-03-01T03:18:00Z,29.8672,-93.9310,0.0,6.3,176.0,8.6,'1111122,1111122,1111122' 
TCOON,ioos:station:TCOON:524:1,2017-03-01T03:24:00Z,29.8672,-93.9310,0.0,4.9,178.0,8.4,'11111222,11111222,11111222' 
TCOON,ioos:station:TCOON:524:1,2017-03-01T03:30:00Z,29.8672,-93.9310,0.0,5.4,174.0,8.3,'11111222,11111222,11111222' 
TCOON,ioos:station:TCOON:524:1,2017-03-01T03:36:00Z,29.8672,-93.9310,0.0,4.9,175.0,8.4,'11111222,11111222,11111222' 
TCOON,ioos:station:TCOON:524:1,2017-03-01T03:42:00Z,29.8672,-93.9310,0.0,4.4,175.0,7.2,'11111222,11111222,11111222' 
TCOON,ioos:station:TCOON:524:1,2017-03-01T03:48:00Z,29.8672,-93.9310,0.0,4.5,177.0,6.9,'11111222,11111222,11111222' 
TCOON,ioos:station:TCOON:524:1,2017-03-01T03:54:00Z,29.8672,-93.9310,0.0,5.0,182.0,8.0,'11111222,11111222,11111222' 
TCOON,ioos:station:TCOON:524:1,2017-03-01T04:00:00Z,29.8672,-93.9310,0.0,3.8,181.0,7.6,'11111222,11111222,11111222' 
TCOON,ioos:station:TCOON:524:1,2017-03-01T04:06:00Z,29.8672,-93.9310,0.0,4.9,188.0,9.0,'11111222,11111222,11111222' 
TCOON,ioos:station:TCOON:524:1,2017-03-01T04:12:00Z,29.8672,-93.9310,0.0,4.3,186.0,7.9,'11111222,11111222,11111222' 
TCOON,ioos:station:TCOON:524:1,2017-03-01T04:18:00Z,29.8672,-93.9310,0.0,4.3,186.0,7.9,'1111122,1111122,1111122' 
TCOON,ioos:station:TCOON:524:1,2017-03-01T04:24:00Z,29.8672,-93.9310,0.0,5.2,186.0,7.3,'11111222,11111222,11111222' 
TCOON,ioos:station:TCOON:524:1,2017-03-01T04:30:00Z,29.8672,-93.9310,0.0,4.7,183.0,7.1,'11111222,11111222,11111222' 
TCOON,ioos:station:TCOON:524:1,2017-03-01T04:36:00Z,29.8672,-93.9310,0.0,4.0,178.0,5.9,'11111222,11111222,11111222' 
TCOON,ioos:station:TCOON:524:1,2017-03-01T04:42:00Z,29.8672,-93.9310,0.0,3.9,184.0,6.7,'11111222,11111222,11111222' 
TCOON,ioos:station:TCOON:524:1,2017-03-01T04:48:00Z,29.8672,-93.9310,0.0,4.5,180.0,6.5,'11111222,11111222,11111222' 
TCOON,ioos:station:TCOON:524:1,2017-03-01T04:54:00Z,29.8672,-93.9310,0.0,3.8,180.0,7.0,'11111222,11111222,11111222' 
TCOON,ioos:station:TCOON:524:1,2017-03-01T05:00:00Z,29.8672,-93.9310,0.0,3.4,173.0,6.4,'11111222,11111222,11111222' 
TCOON,ioos:station:TCOON:524:1,2017-03-01T05:06:00Z,29.8672,-93.9310,0.0,4.2,177.0,6.6,'11111222,11111222,11111222' 
TCOON,ioos:station:TCOON:524:1,2017-03-01T05:12:00Z,29.8672,-93.9310,0.0,4.6,175.0,7.3,'11111222,11111222,11111222' 
TCOON,ioos:station:TCOON:524:1,2017-03-01T05:18:00Z,29.8672,-93.9310,0.0,4.6,175.0,7.3,'1111122,1111122,1111122' 
TCOON,ioos:station:TCOON:524:1,2017-03-01T05:24:00Z,29.8672,-93.9310,0.0,4.4,180.0,6.3,'11111222,11111222,11111222' 
TCOON,ioos:station:TCOON:524:1,2017-03-01T05:30:00Z,29.8672,-93.9310,0.0,4.1,182.0,7.0,'11111222,11111222,11111222' 
TCOON,ioos:station:TCOON:524:1,2017-03-01T05:36:00Z,29.8672,-93.9310,0.0,4.1,182.0,5.8,'11111222,11111222,11111222' 
TCOON,ioos:station:TCOON:524:1,2017-03-01T05:42:00Z,29.8672,-93.9310,0.0,3.6,179.0,7.2,'11111222,11111222,11111222' 
TCOON,ioos:station:TCOON:524:1,2017-03-01T05:48:00Z,29.8672,-93.9310,0.0,4.8,176.0,6.7,'11111222,11111222,11111222' 
TCOON,ioos:station:TCOON:524:1,2017-03-01T05:54:00Z,29.8672,-93.9310,0.0,4.8,182.0,7.3,'11111222,11111222,11111222' 
TCOON,ioos:station:TCOON:524:1,2017-03-01T06:00:00Z,29.8672,-93.9310,0.0,4.3,180.0,7.1,'11111222,11111222,11111222' 
TCOON,ioos:station:TCOON:524:1,2017-03-01T06:06:00Z,29.8672,-93.9310,0.0,4.4,180.0,7.0,'11111222,11111222,11111222' 
TCOON,ioos:station:TCOON:524:1,2017-03-01T06:12:00Z,29.8672,-93.9310,0.0,4.4,183.0,7.5,'11111222,11111222,11111222' 
TCOON,ioos:station:TCOON:524:1,2017-03-01T06:18:00Z,29.8672,-93.9310,0.0,4.4,183.0,7.5,'1111122,1111122,1111122' 
TCOON,ioos:station:TCOON:524:1,2017-03-01T06:24:00Z,29.8672,-93.9310,0.0,3.9,190.0,7.0,'11111222,11111222,11111222' 
TCOON,ioos:station:TCOON:524:1,2017-03-01T06:30:00Z,29.8672,-93.9310,0.0,4.5,184.0,6.9,'11111222,11111222,11111222' 
TCOON,ioos:station:TCOON:524:1,2017-03-01T06:36:00Z,29.8672,-93.9310,0.0,5.0,182.0,7.2,'11111222,11111222,11111222' 
TCOON,ioos:station:TCOON:524:1,2017-03-01T06:42:00Z,29.8672,-93.9310,0.0,4.4,190.0,6.2,'11111222,11111222,11111222' 
TCOON,ioos:station:TCOON:524:1,2017-03-01T06:48:00Z,29.8672,-93.9310,0.0,3.8,185.0,7.9,'11111222,11111222,11111222' 
TCOON,ioos:station:TCOON:524:1,2017-03-01T06:54:00Z,29.8672,-93.9310,0.0,4.4,190.0,7.4,'11111222,11111222,11111222' 
TCOON,ioos:station:TCOON:524:1,2017-03-01T07:00:00Z,29.8672,-93.9310,0.0,4.0,187.0,6.7,'11111222,11111222,11111222' 
TCOON,ioos:station:TCOON:524:1,2017-03-01T07:06:00Z,29.8672,-93.9310,0.0,3.9,187.0,6.0,'11111222,11111222,11111222' 
TCOON,ioos:station:TCOON:524:1,2017-03-01T07:12:00Z,29.8672,-93.9310,0.0,4.6,187.0,6.8,'11111222,11111222,11111222' 
TCOON,ioos:station:TCOON:524:1,2017-03-01T07:18:00Z,29.8672,-93.9310,0.0,4.6,187.0,6.8,'1111122,1111122,1111122' 
TCOON,ioos:station:TCOON:524:1,2017-03-01T07:24:00Z,29.8672,-93.9310,0.0,4.2,176.0,6.6,'11111222,11111222,11111222' 
TCOON,ioos:station:TCOON:524:1,2017-03-01T07:30:00Z,29.8672,-93.9310,0.0,4.8,184.0,7.1,'11111222,11111222,11111222' 
TCOON,ioos:station:TCOON:524:1,2017-03-01T07:36:00Z,29.8672,-93.9310,0.0,4.6,178.0,7.1,'11111222,11111222,11111222' 
TCOON,ioos:station:TCOON:524:1,2017-03-01T07:42:00Z,29.8672,-93.9310,0.0,5.1,186.0,6.5,'11111222,11111222,11111222' 
TCOON,ioos:station:TCOON:524:1,2017-03-01T07:48:00Z,29.8672,-93.9310,0.0,5.0,184.0,7.4,'11111222,11111222,11111222' 
TCOON,ioos:station:TCOON:524:1,2017-03-01T07:54:00Z,29.8672,-93.9310,0.0,4.3,182.0,6.9,'11111222,11111222,11111222' 
TCOON,ioos:station:TCOON:524:1,2017-03-01T08:00:00Z,29.8672,-93.9310,0.0,5.5,185.0,8.9,'11111222,11111222,11111222' 
TCOON,ioos:station:TCOON:524:1,2017-03-01T08:06:00Z,29.8672,-93.9310,0.0,5.0,184.0,7.5,'11111222,11111222,11111222' 
TCOON,ioos:station:TCOON:524:1,2017-03-01T08:12:00Z,29.8672,-93.9310,0.0,4.1,184.0,6.3,'11111222,11111222,11111222' 
TCOON,ioos:station:TCOON:524:1,2017-03-01T08:18:00Z,29.8672,-93.9310,0.0,4.1,184.0,6.3,'1111122,1111122,1111122' 
TCOON,ioos:station:TCOON:524:1,2017-03-01T08:24:00Z,29.8672,-93.9310,0.0,4.2,186.0,7.0,'11111222,11111222,11111222' 
TCOON,ioos:station:TCOON:524:1,2017-03-01T08:30:00Z,29.8672,-93.9310,0.0,4.7,180.0,6.5,'11111222,11111222,11111222' 
TCOON,ioos:station:TCOON:524:1,2017-03-01T08:36:00Z,29.8672,-93.9310,0.0,4.7,186.0,6.8,'11111222,11111222,11111222' 
TCOON,ioos:station:TCOON:524:1,2017-03-01T08:42:00Z,29.8672,-93.9310,0.0,4.2,190.0,7.5,'11111222,11111222,11111222' 
TCOON,ioos:station:TCOON:524:1,2017-03-01T08:48:00Z,29.8672,-93.9310,0.0,4.1,183.0,7.9,'11111222,11111222,11111222' 
TCOON,ioos:station:TCOON:524:1,2017-03-01T08:54:00Z,29.8672,-93.9310,0.0,4.6,182.0,6.5,'11111222,11111222,11111222' 
TCOON,ioos:station:TCOON:524:1,2017-03-01T09:00:00Z,29.8672,-93.9310,0.0,4.4,181.0,6.9,'11111222,11111222,11111222' 
TCOON,ioos:station:TCOON:524:1,2017-03-01T09:06:00Z,29.8672,-93.9310,0.0,5.7,177.0,7.7,'11111222,11111222,11111222' 
TCOON,ioos:station:TCOON:524:1,2017-03-01T09:12:00Z,29.8672,-93.9310,0.0,4.7,185.0,8.6,'11111222,11111222,11111222' 
TCOON,ioos:station:TCOON:524:1,2017-03-01T09:18:00Z,29.8672,-93.9310,0.0,4.7,185.0,8.6,'1111122,1111122,1111122' 
TCOON,ioos:station:TCOON:524:1,2017-03-01T09:24:00Z,29.8672,-93.9310,0.0,4.6,187.0,8.5,'11111222,11111222,11111222' 
TCOON,ioos:station:TCOON:524:1,2017-03-01T09:30:00Z,29.8672,-93.9310,0.0,5.3,192.0,7.7,'11111222,11111222,11111222' 
TCOON,ioos:station:TCOON:524:1,2017-03-01T09:36:00Z,29.8672,-93.9310,0.0,5.3,193.0,7.4,'11111222,11111222,11111222' 
TCOON,ioos:station:TCOON:524:1,2017-03-01T09:42:00Z,29.8672,-93.9310,0.0,4.9,200.0,6.7,'11111222,11111222,11111222' 
TCOON,ioos:station:TCOON:524:1,2017-03-01T09:48:00Z,29.8672,-93.9310,0.0,4.5,196.0,6.8,'11111222,11111222,11111222' 
TCOON,ioos:station:TCOON:524:1,2017-03-01T09:54:00Z,29.8672,-93.9310,0.0,4.6,198.0,7.6,'11111222,11111222,11111222' 
TCOON,ioos:station:TCOON:524:1,2017-03-01T10:00:00Z,29.8672,-93.9310,0.0,4.9,200.0,6.7,'11111222,11111222,11111222' 
TCOON,ioos:station:TCOON:524:1,2017-03-01T10:06:00Z,29.8672,-93.9310,0.0,3.7,200.0,6.1,'11111222,11111222,11111222' 
TCOON,ioos:station:TCOON:524:1,2017-03-01T10:12:00Z,29.8672,-93.9310,0.0,4.1,195.0,6.7,'11111222,11111222,11111222' 
TCOON,ioos:station:TCOON:524:1,2017-03-01T10:18:00Z,29.8672,-93.9310,0.0,4.1,195.0,6.7,'1111122,1111122,1111122' 
TCOON,ioos:station:TCOON:524:1,2017-03-01T10:24:00Z,29.8672,-93.9310,0.0,4.3,192.0,6.1,'11111222,11111222,11111222' 
TCOON,ioos:station:TCOON:524:1,2017-03-01T10:30:00Z,29.8672,-93.9310,0.0,3.4,197.0,5.4,'11111222,11111222,11111222' 
TCOON,ioos:station:TCOON:524:1,2017-03-01T10:36:00Z,29.8672,-93.9310,0.0,4.1,200.0,6.6,'11111222,11111222,11111222' 
TCOON,ioos:station:TCOON:524:1,2017-03-01T10:42:00Z,29.8672,-93.9310,0.0,4.2,194.0,6.5,'11111222,11111222,11111222' 
TCOON,ioos:station:TCOON:524:1,2017-03-01T10:48:00Z,29.8672,-93.9310,0.0,4.1,190.0,5.9,'11111222,11111222,11111222' 
TCOON,ioos:station:TCOON:524:1,2017-03-01T10:54:00Z,29.8672,-93.9310,0.0,3.2,191.0,5.5,'11111222,11111222,11111222' 
TCOON,ioos:station:TCOON:524:1,2017-03-01T11:00:00Z,29.8672,-93.9310,0.0,3.3,181.0,6.3,'11111222,11111222,11111222' 
TCOON,ioos:station:TCOON:524:1,2017-03-01T11:06:00Z,29.8672,-93.9310,0.0,3.4,190.0,5.0,'11111222,11111222,11111222' 
TCOON,ioos:station:TCOON:524:1,2017-03-01T11:12:00Z,29.8672,-93.9310,0.0,3.5,186.0,5.3,'11111222,11111222,11111222' 
TCOON,ioos:station:TCOON:524:1,2017-03-01T11:18:00Z,29.8672,-93.9310,0.0,3.5,186.0,5.3,'1111122,1111122,1111122' 
TCOON,ioos:station:TCOON:524:1,2017-03-01T11:24:00Z,29.8672,-93.9310,0.0,3.1,203.0,4.0,'11111222,11111222,11111222' 
TCOON,ioos:station:TCOON:524:1,2017-03-01T11:30:00Z,29.8672,-93.9310,0.0,2.3,206.0,3.5,'11111222,11111222,11111222' 
TCOON,ioos:station:TCOON:524:1,2017-03-01T11:36:00Z,29.8672,-93.9310,0.0,1.9,217.0,4.2,'11111222,11111222,11111222' 
TCOON,ioos:station:TCOON:524:1,2017-03-01T11:42:00Z,29.8672,-93.9310,0.0,2.6,193.0,4.2,'11111222,11111222,11111222' 
TCOON,ioos:station:TCOON:524:1,2017-03-01T11:48:00Z,29.8672,-93.9310,0.0,3.3,201.0,4.8,'11111222,11111222,11111222' 
TCOON,ioos:station:TCOON:524:1,2017-03-01T11:54:00Z,29.8672,-93.9310,0.0,2.4,202.0,3.5,'11111222,11111222,11111222' 
TCOON,ioos:station:TCOON:524:1,2017-03-01T12:00:00Z,29.8672,-93.9310,0.0,1.7,208.0,3.1,'11111222,11111222,11111222' 
TCOON,ioos:station:TCOON:524:1,2017-03-01T12:06:00Z,29.8672,-93.9310,0.0,2.1,224.0,3.0,'11111222,11111222,11111222' 
TCOON,ioos:station:TCOON:524:1,2017-03-01T12:12:00Z,29.8672,-93.9310,0.0,2.1,200.0,3.1,'11111222,11111222,11111222' 
TCOON,ioos:station:TCOON:524:1,2017-03-01T12:18:00Z,29.8672,-93.9310,0.0,2.1,200.0,3.1,'1111122,1111122,1111122' 
TCOON,ioos:station:TCOON:524:1,2017-03-01T12:24:00Z,29.8672,-93.9310,0.0,2.4,198.0,3.8,'11111222,11111222,11111222' 
TCOON,ioos:station:TCOON:524:1,2017-03-01T12:30:00Z,29.8672,-93.9310,0.0,2.7,199.0,3.6,'11111222,11111222,11111222' 
TCOON,ioos:station:TCOON:524:1,2017-03-01T12:36:00Z,29.8672,-93.9310,0.0,2.2,199.0,3.1,'11111222,11111222,11111222' 
TCOON,ioos:station:TCOON:524:1,2017-03-01T12:42:00Z,29.8672,-93.9310,0.0,1.9,226.0,2.2,'11111222,11111222,11111222' 
TCOON,ioos:station:TCOON:524:1,2017-03-01T12:48:00Z,29.8672,-93.9310,0.0,1.6,254.0,2.1,'11111222,11111222,11111222' 
TCOON,ioos:station:TCOON:524:1,2017-03-01T12:54:00Z,29.8672,-93.9310,0.0,3.7,230.0,4.6,'11111222,11111222,11111222' 
TCOON,ioos:station:TCOON:524:1,2017-03-01T13:00:00Z,29.8672,-93.9310,0.0,3.0,259.0,5.7,'11111222,11111222,11111222' 
TCOON,ioos:station:TCOON:524:1,2017-03-01T13:06:00Z,29.8672,-93.9310,0.0,3.5,296.0,6.2,'11111222,11111222,11111222' 
TCOON,ioos:station:TCOON:524:1,2017-03-01T13:12:00Z,29.8672,-93.9310,0.0,2.8,279.0,4.1,'11111222,11111222,11111222' 
TCOON,ioos:station:TCOON:524:1,2017-03-01T13:18:00Z,29.8672,-93.9310,0.0,2.8,279.0,4.1,'1111122,1111122,1111122' 
TCOON,ioos:station:TCOON:524:1,2017-03-01T13:24:00Z,29.8672,-93.9310,0.0,2.1,248.0,5.4,'11111222,11111222,11111222' 
TCOON,ioos:station:TCOON:524:1,2017-03-01T13:30:00Z,29.8672,-93.9310,0.0,2.0,243.0,3.5,'11111222,11111222,11111222' 
TCOON,ioos:station:TCOON:524:1,2017-03-01T13:36:00Z,29.8672,-93.9310,0.0,1.8,236.0,3.5,'11111222,11111222,11111222' 
TCOON,ioos:station:TCOON:524:1,2017-03-01T13:42:00Z,29.8672,-93.9310,0.0,4.2,217.0,5.6,'11111222,11111222,11111222' 
TCOON,ioos:station:TCOON:524:1,2017-03-01T13:48:00Z,29.8672,-93.9310,0.0,3.5,208.0,5.3,'11111222,11111222,11111222' 
TCOON,ioos:station:TCOON:524:1,2017-03-01T13:54:00Z,29.8672,-93.9310,0.0,2.9,211.0,4.4,'11111222,11111222,11111222' 
TCOON,ioos:station:TCOON:524:1,2017-03-01T14:00:00Z,29.8672,-93.9310,0.0,2.8,201.0,3.5,'11111222,11111222,11111222' 
TCOON,ioos:station:TCOON:524:1,2017-03-01T14:06:00Z,29.8672,-93.9310,0.0,2.2,182.0,3.4,'11111222,11111222,11111222' 
TCOON,ioos:station:TCOON:524:1,2017-03-01T14:12:00Z,29.8672,-93.9310,0.0,2.2,174.0,3.3,'11111222,11111222,11111222' 
TCOON,ioos:station:TCOON:524:1,2017-03-01T14:18:00Z,29.8672,-93.9310,0.0,2.2,174.0,3.3,'1111122,1111122,1111122' 
TCOON,ioos:station:TCOON:524:1,2017-03-01T14:24:00Z,29.8672,-93.9310,0.0,2.4,171.0,4.1,'11111222,11111222,11111222' 
TCOON,ioos:station:TCOON:524:1,2017-03-01T14:30:00Z,29.8672,-93.9310,0.0,1.5,183.0,3.1,'11111222,11111222,11111222' 
TCOON,ioos:station:TCOON:524:1,2017-03-01T14:36:00Z,29.8672,-93.9310,0.0,1.4,182.0,2.9,'11111222,11111222,11111222' 
TCOON,ioos:station:TCOON:524:1,2017-03-01T14:42:00Z,29.8672,-93.9310,0.0,1.7,191.0,2.7,'11111222,11111222,11111222' 
TCOON,ioos:station:TCOON:524:1,2017-03-01T14:48:00Z,29.8672,-93.9310,0.0,1.7,195.0,2.6,'11111222,11111222,11111222' 
TCOON,ioos:station:TCOON:524:1,2017-03-01T14:54:00Z,29.8672,-93.9310,0.0,2.2,219.0,3.0,'11111222,11111222,11111222' 
TCOON,ioos:station:TCOON:524:1,2017-03-01T15:00:00Z,29.8672,-93.9310,0.0,3.2,203.0,4.6,'11111222,11111222,11111222' 
TCOON,ioos:station:TCOON:524:1,2017-03-01T15:06:00Z,29.8672,-93.9310,0.0,3.2,211.0,4.6,'11111222,11111222,11111222' 
TCOON,ioos:station:TCOON:524:1,2017-03-01T15:12:00Z,29.8672,-93.9310,0.0,3.7,197.0,5.4,'11111222,11111222,11111222' 
TCOON,ioos:station:TCOON:524:1,2017-03-01T15:18:00Z,29.8672,-93.9310,0.0,3.7,197.0,5.4,'1111122,1111122,1111122' 
TCOON,ioos:station:TCOON:524:1,2017-03-01T15:24:00Z,29.8672,-93.9310,0.0,3.0,209.0,5.8,'11111222,11111222,11111222' 
TCOON,ioos:station:TCOON:524:1,2017-03-01T15:30:00Z,29.8672,-93.9310,0.0,3.0,212.0,4.6,'11111222,11111222,11111222' 
TCOON,ioos:station:TCOON:524:1,2017-03-01T15:36:00Z,29.8672,-93.9310,0.0,4.6,215.0,6.6,'11111222,11111222,11111222' 
TCOON,ioos:station:TCOON:524:1,2017-03-01T15:42:00Z,29.8672,-93.9310,0.0,4.5,210.0,6.3,'11111222,11111222,11111222' 
TCOON,ioos:station:TCOON:524:1,2017-03-01T15:48:00Z,29.8672,-93.9310,0.0,4.1,204.0,6.0,'11111222,11111222,11111222' 
TCOON,ioos:station:TCOON:524:1,2017-03-01T15:54:00Z,29.8672,-93.9310,0.0,4.3,202.0,5.8,'11111222,11111222,11111222' 
TCOON,ioos:station:TCOON:524:1,2017-03-01T16:00:00Z,29.8672,-93.9310,0.0,3.8,205.0,6.4,'11111222,11111222,11111222' 
TCOON,ioos:station:TCOON:524:1,2017-03-01T16:06:00Z,29.8672,-93.9310,0.0,4.9,190.0,6.7,'11111222,11111222,11111222' 
TCOON,ioos:station:TCOON:524:1,2017-03-01T16:12:00Z,29.8672,-93.9310,0.0,4.1,196.0,7.1,'11111222,11111222,11111222' 
TCOON,ioos:station:TCOON:524:1,2017-03-01T16:18:00Z,29.8672,-93.9310,0.0,4.1,196.0,7.1,'1111122,1111122,1111122' 
TCOON,ioos:station:TCOON:524:1,2017-03-01T16:24:00Z,29.8672,-93.9310,0.0,4.8,218.0,6.5,'11111222,11111222,11111222' 
TCOON,ioos:station:TCOON:524:1,2017-03-01T16:30:00Z,29.8672,-93.9310,0.0,5.8,208.0,6.7,'11111222,11111222,11111222' 
TCOON,ioos:station:TCOON:524:1,2017-03-01T16:36:00Z,29.8672,-93.9310,0.0,4.7,222.0,6.2,'11111222,11111222,11111222' 
TCOON,ioos:station:TCOON:524:1,2017-03-01T16:42:00Z,29.8672,-93.9310,0.0,4.6,197.0,5.9,'11111222,11111222,11111222' 
TCOON,ioos:station:TCOON:524:1,2017-03-01T16:54:00Z,29.8672,-93.9310,0.0,4.6,216.0,7.2,'11111222,11111222,11111222' 
TCOON,ioos:station:TCOON:524:1,2017-03-01T17:00:00Z,29.8672,-93.9310,0.0,4.0,202.0,5.8,'11111222,11111222,11111222' 
TCOON,ioos:station:TCOON:524:1,2017-03-01T17:06:00Z,29.8672,-93.9310,0.0,5.3,219.0,6.6,'11111222,11111222,11111222' 
TCOON,ioos:station:TCOON:524:1,2017-03-01T17:12:00Z,29.8672,-93.9310,0.0,5.3,206.0,6.5,'11111222,11111222,11111222' 
TCOON,ioos:station:TCOON:524:1,2017-03-01T17:18:00Z,29.8672,-93.9310,0.0,5.3,206.0,6.5,'1111122,1111122,1111122' 
TCOON,ioos:station:TCOON:524:1,2017-03-01T17:24:00Z,29.8672,-93.9310,0.0,5.5,211.0,6.6,'11111222,11111222,11111222' 
TCOON,ioos:station:TCOON:524:1,2017-03-01T17:30:00Z,29.8672,-93.9310,0.0,5.8,218.0,7.1,'11111222,11111222,11111222' 
TCOON,ioos:station:TCOON:524:1,2017-03-01T17:36:00Z,29.8672,-93.9310,0.0,4.8,202.0,6.7,'11111222,11111222,11111222' 
TCOON,ioos:station:TCOON:524:1,2017-03-01T17:42:00Z,29.8672,-93.9310,0.0,4.4,207.0,5.5,'11111222,11111222,11111222' 
TCOON,ioos:station:TCOON:524:1,2017-03-01T17:48:00Z,29.8672,-93.9310,0.0,4.7,218.0,7.3,'11111222,11111222,11111222' 
TCOON,ioos:station:TCOON:524:1,2017-03-01T17:54:00Z,29.8672,-93.9310,0.0,5.3,222.0,7.1,'11111222,11111222,11111222' 
TCOON,ioos:station:TCOON:524:1,2017-03-01T18:00:00Z,29.8672,-93.9310,0.0,5.2,213.0,5.9,'11111222,11111222,11111222' 
TCOON,ioos:station:TCOON:524:1,2017-03-01T18:06:00Z,29.8672,-93.9310,0.0,4.3,215.0,6.8,'11111222,11111222,11111222' 
TCOON,ioos:station:TCOON:524:1,2017-03-01T18:12:00Z,29.8672,-93.9310,0.0,4.6,207.0,6.7,'11111222,11111222,11111222' 
TCOON,ioos:station:TCOON:524:1,2017-03-01T18:18:00Z,29.8672,-93.9310,0.0,4.6,207.0,6.7,'1111122,1111122,1111122' 
TCOON,ioos:station:TCOON:524:1,2017-03-01T18:24:00Z,29.8672,-93.9310,0.0,4.4,205.0,6.7,'11111222,11111222,11111222' 
TCOON,ioos:station:TCOON:524:1,2017-03-01T18:30:00Z,29.8672,-93.9310,0.0,5.5,211.0,7.2,'11111222,11111222,11111222' 
TCOON,ioos:station:TCOON:524:1,2017-03-01T18:36:00Z,29.8672,-93.9310,0.0,4.1,181.0,6.5,'11111222,11111222,11111222' 
TCOON,ioos:station:TCOON:524:1,2017-03-01T18:42:00Z,29.8672,-93.9310,0.0,4.1,187.0,6.3,'11111222,11111222,11111222' 
TCOON,ioos:station:TCOON:524:1,2017-03-01T18:48:00Z,29.8672,-93.9310,0.0,3.8,191.0,7.1,'11111222,11111222,11111222' 
TCOON,ioos:station:TCOON:524:1,2017-03-01T18:54:00Z,29.8672,-93.9310,0.0,4.7,195.0,6.6,'11111222,11111222,11111222' 
TCOON,ioos:station:TCOON:524:1,2017-03-01T19:00:00Z,29.8672,-93.9310,0.0,5.3,186.0,7.0,'11111222,11111222,11111222' 
TCOON,ioos:station:TCOON:524:1,2017-03-01T19:06:00Z,29.8672,-93.9310,0.0,4.2,192.0,6.5,'11111222,11111222,11111222' 
TCOON,ioos:station:TCOON:524:1,2017-03-01T19:12:00Z,29.8672,-93.9310,0.0,5.6,200.0,7.3,'11111222,11111222,11111222' 
TCOON,ioos:station:TCOON:524:1,2017-03-01T19:18:00Z,29.8672,-93.9310,0.0,5.6,200.0,7.3,'1111122,1111122,1111122' 
TCOON,ioos:station:TCOON:524:1,2017-03-01T19:24:00Z,29.8672,-93.9310,0.0,5.3,214.0,7.2,'11111222,11111222,11111222' 
TCOON,ioos:station:TCOON:524:1,2017-03-01T19:30:00Z,29.8672,-93.9310,0.0,5.1,199.0,7.7,'11111222,11111222,11111222' 
TCOON,ioos:station:TCOON:524:1,2017-03-01T19:36:00Z,29.8672,-93.9310,0.0,6.6,219.0,8.3,'11111222,11111222,11111222' 
TCOON,ioos:station:TCOON:524:1,2017-03-01T19:42:00Z,29.8672,-93.9310,0.0,4.7,206.0,7.9,'11111222,11111222,11111222' 
TCOON,ioos:station:TCOON:524:1,2017-03-01T19:48:00Z,29.8672,-93.9310,0.0,6.1,212.0,8.5,'11111222,11111222,11111222' 
TCOON,ioos:station:TCOON:524:1,2017-03-01T19:54:00Z,29.8672,-93.9310,0.0,5.7,215.0,8.0,'11111222,11111222,11111222' 
TCOON,ioos:station:TCOON:524:1,2017-03-01T20:00:00Z,29.8672,-93.9310,0.0,6.8,216.0,7.9,'11111222,11111222,11111222' 
TCOON,ioos:station:TCOON:524:1,2017-03-01T20:06:00Z,29.8672,-93.9310,0.0,5.3,219.0,7.8,'11111222,11111222,11111222' 
TCOON,ioos:station:TCOON:524:1,2017-03-01T20:12:00Z,29.8672,-93.9310,0.0,6.4,214.0,7.9,'11111222,11111222,11111222' 
TCOON,ioos:station:TCOON:524:1,2017-03-01T20:18:00Z,29.8672,-93.9310,0.0,6.4,214.0,7.9,'1111122,1111122,1111122' 
TCOON,ioos:station:TCOON:524:1,2017-03-01T20:24:00Z,29.8672,-93.9310,0.0,6.0,202.0,8.7,'11111222,11111222,11111222' 